Tracking 35274 objects as of 11-Sep-2026
HD Live streaming from Space Station
objects crossing your sky now

PEGASUS DEB


PEGASUS DEB is no longer on orbit


NORAD ID: 23983
Int'l Code: 1994-029AD
Launch date: May 19, 1994
Source: United States (US)
Launch site: AIR FORCE WESTERN TEST RANGE (AFWTR)
Decay date: 1997-09-03

Note: This is SATELLITE DEBRIS
Your satellite tracking list
Your tracking list is empty




NASA's NSSDC Master Catalog

Two Line Element Set (TLE):
1 23983U 94029AD  97244.93728661  .08824607  00000-0  54018-1 0  9991
2 23983 080.8082 067.9679 0036093 005.3141 354.8473 15.71217547 64400
Source of the keplerian elements: AFSPC